Weather History for Charlotte, NC

Change the Weather History Date:

Monday, April 28, 2014

  Actual Average Record
Temperature  
Mean Temperature 73 °F 63 °F  
Max Temperature 84 °F 75 °F 90 °F (1943)
Min Temperature 61 °F 50 °F 36 °F (1967)
Degree Days  
Heating Degree Days 0 4  
Month to date heating degree days 145 191  
Since 1 July heating degree days 3362 3323  
Cooling Degree Days 8 2  
Month to date cooling degree days 33 32  
Year to date cooling degree days 34 37  
Growing Degree Days 24 (Base 50)    
Moisture  
Dew Point 61 °F    
Average Humidity 65    
Maximum Humidity 87    
Minimum Humidity 43    
Precipitation  
Precipitation 0.01 in 0.10 in 2.23 in (2013)
Month to date precipitation 6.44 2.86  
Year to date precipitation 17.84 13.60  
Snow  
Snow 0.00 in 0.00 in T in (1928)
Month to date snowfall 0.0 0.0  
Since 1 July snowfall 9.3 4.3  
Snow Depth 0.00 in    
Sea Level Pressure  
Sea Level Pressure 29.91 in    
Wind  
Wind Speed 6 mph (SSE)    
Max Wind Speed 14 mph    
Max Gust Speed 17 mph    
Visibility 10 miles    
Events Rain    
T = Trace of Precipitation, MM = Missing Value Source: NWS Daily Summary

Daily Weather History Graph

Daily Weather History Graph

Search for Another Location

Airport:

Trip Planner

Search our weather history database for the weather conditions in past years. The results will help you decide how hot, cold, wet, or windy it might be!

Date:

Astronomy

Apr. 28, 2014 Rise Set
Actual Time 6:35 AM EDT 8:07 PM EDT
Civil Twilight 6:08 AM EDT 8:34 PM EDT
Nautical Twilight 5:36 AM EDT 9:06 PM EDT
Astronomical Twilight 5:02 AM EDT 9:40 PM EDT
Moon 6:10 AM EDT (4/28) 7:44 PM EDT (4/28)
Length of Visible Light 14h 25m
Length of Day
13h 31m
Waning Crescent, 0% of the Moon is Illuminated
Apr 28
Waning Crescent
Apr 29
New
May 6
First Quarter
May 14
Full
May 21
Last Quarter

Hourly Weather History & Observations

Time (EDT) Temp. Heat Index Dew Point Humidity Pressure Visibility Wind Dir Wind Speed Gust Speed Precip Events Conditions
12:52 AM 68.0 °F - 57.2 °F 68% 29.95 in 10.0 mi SSE 5.8 mph - N/A   Overcast
1:52 AM 68.0 °F - 57.2 °F 68% 29.94 in 10.0 mi SSE 5.8 mph - N/A   Overcast
2:52 AM 68.0 °F - 57.2 °F 68% 29.95 in 10.0 mi SSW 3.5 mph - N/A   Overcast
3:52 AM 66.9 °F - 61.0 °F 81% 29.92 in 10.0 mi SSE 5.8 mph - 0.00 in Rain Light Rain
4:52 AM 66.9 °F - 62.1 °F 84% 29.93 in 10.0 mi SE 6.9 mph - 0.01 in Rain Light Rain
5:52 AM 66.2 °F - 60.8 °F 83% 29.95 in 10.0 mi SSE 5.8 mph - N/A   Overcast
6:52 AM 66.0 °F - 62.1 °F 87% 29.93 in 10.0 mi SSE 4.6 mph - N/A   Overcast
7:52 AM 66.9 °F - 61.0 °F 81% 29.94 in 10.0 mi SSE 5.8 mph - N/A   Overcast
8:52 AM 69.1 °F - 62.1 °F 78% 29.93 in 10.0 mi South 5.8 mph - N/A   Mostly Cloudy
9:52 AM 71.6 °F - 64.4 °F 78% 29.94 in 10.0 mi SSW 6.9 mph - N/A   Overcast
10:52 AM 75.9 °F - 63.0 °F 64% 29.93 in 10.0 mi SSW 3.5 mph - N/A   Overcast
11:52 AM 78.1 °F - 62.1 °F 58% 29.94 in 10.0 mi West 5.8 mph - N/A   Mostly Cloudy
12:52 PM 81.0 °F 82.2 °F 63.0 °F 54% 29.91 in 10.0 mi SSW 6.9 mph - N/A   Overcast
1:52 PM 80.1 °F 81.5 °F 63.0 °F 56% 29.89 in 10.0 mi Variable 4.6 mph - N/A   Overcast
2:52 PM 82.9 °F 84.4 °F 64.0 °F 53% 29.87 in 10.0 mi Calm Calm - N/A   Overcast
3:52 PM 80.6 °F 81.5 °F 60.8 °F 51% 29.89 in 10.0 mi West 4.6 mph - N/A   Overcast
4:52 PM 82.9 °F 83.7 °F 62.1 °F 49% 29.83 in 10.0 mi WSW 4.6 mph - N/A   Mostly Cloudy
6:52 PM 78.1 °F - 63.0 °F 60% 29.83 in 10.0 mi NNE 5.8 mph - N/A   Mostly Cloudy
7:52 PM 75.0 °F - 62.1 °F 64% 29.85 in 10.0 mi NNE 8.1 mph - N/A   Overcast
8:52 PM 72.0 °F - 59.0 °F 64% 29.87 in 10.0 mi East 10.4 mph - N/A   Mostly Cloudy
9:52 PM 70.0 °F - 57.9 °F 65% 29.90 in 10.0 mi East 8.1 mph - N/A   Mostly Cloudy
10:52 PM 66.2 °F - 53.6 °F 64% 29.91 in 10.0 mi ENE 10.4 mph - N/A   Overcast
11:52 PM 63.0 °F - 54.0 °F 72% 29.89 in 10.0 mi NE 8.1 mph - N/A   Overcast